AEE65R LGAV-LIRF

Flight info

Callsign AEE65R
Flight time N/A
Altitude 36000
Route KOR UL53 IXONI DCT OLGAT DCT TOPNO DCT DOGUS DCT EKTOL DCT AMSOR DCT IPKAM DCT TEA DCT SIPRO DCT LAT
Aircraft A320/M-SDE3FGHIRWY/LB1

Departure

Time 2026-05-04 12:39
Airport Athens Eleftherios Venizelos International Airport (LGAV)

Arrival

Time N/A
Airport Rome–Fiumicino Leonardo da Vinci International Airport (LIRF)
Time Latitude Longitude Altitude Speed Heading
2026-05-04 12:19 37.93084 23.94462 301 ft 0 kts 217°
2026-05-04 12:27 37.93085 23.94463 301 ft 2 kts 217°
2026-05-04 12:27 37.93105 23.94481 302 ft 3 kts 217°
2026-05-04 12:27 37.93122 23.94498 301 ft 4 kts 212°
2026-05-04 12:28 37.93145 23.94510 301 ft 4 kts 165°
2026-05-04 12:28 37.93161 23.94492 302 ft 4 kts 127°
2026-05-04 12:28 37.93165 23.94486 301 ft 0 kts 127°
2026-05-04 12:31 37.93165 23.94487 301 ft 0 kts 127°
2026-05-04 12:31 37.93164 23.94488 301 ft 0 kts 127°
2026-05-04 12:33 37.93153 23.94506 301 ft 7 kts 127°
2026-05-04 12:34 37.93100 23.94597 304 ft 18 kts 127°
2026-05-04 12:34 37.92998 23.94662 300 ft 18 kts 199°
2026-05-04 12:34 37.92892 23.94561 303 ft 20 kts 216°
2026-05-04 12:34 37.92777 23.94454 302 ft 21 kts 217°
2026-05-04 12:35 37.92653 23.94338 303 ft 23 kts 217°
2026-05-04 12:35 37.92522 23.94216 304 ft 22 kts 216°
2026-05-04 12:35 37.92424 23.94179 305 ft 13 kts 149°
2026-05-04 12:35 37.92411 23.94218 305 ft 0 kts 85°
2026-05-04 12:37 37.92412 23.94233 305 ft 6 kts 87°
2026-05-04 12:37 37.92414 23.94293 307 ft 6 kts 88°
2026-05-04 12:37 37.92415 23.94347 308 ft 7 kts 88°
2026-05-04 12:38 37.92434 23.94405 309 ft 8 kts 39°
2026-05-04 12:38 37.92445 23.94416 309 ft 0 kts 36°
2026-05-04 12:38 37.92491 23.94458 309 ft 33 kts 37°
2026-05-04 12:38 37.92869 23.94817 300 ft 99 kts 37°
2026-05-04 12:39 37.93546 23.95461 286 ft 144 kts 37°
2026-05-04 12:39 37.94412 23.96284 626 ft 155 kts 39°
2026-05-04 12:39 37.95280 23.97107 1296 ft 156 kts 36°
2026-05-04 12:39 37.96149 23.97940 1874 ft 157 kts 33°
2026-05-04 12:40 37.96919 23.98678 2237 ft 171 kts 33°
2026-05-04 12:40 37.97995 23.99706 2581 ft 197 kts 33°
2026-05-04 12:40 37.99159 24.00817 3027 ft 222 kts 34°
2026-05-04 12:40 38.00465 24.02031 3558 ft 244 kts 28°
2026-05-04 12:41 38.02101 24.02645 4252 ft 251 kts
2026-05-04 12:41 38.03856 24.02632 5145 ft 253 kts 356°
2026-05-04 12:41 38.05627 24.02540 6047 ft 257 kts 355°
2026-05-04 12:41 38.07382 24.02157 6873 ft 258 kts 335°
2026-05-04 12:42 38.08813 24.00796 7670 ft 261 kts 310°
2026-05-04 12:42 38.09838 23.98877 8514 ft 266 kts 296°
2026-05-04 12:42 38.10249 23.96560 9293 ft 276 kts 274°
2026-05-04 12:42 38.10207 23.94092 10088 ft 282 kts 271°
2026-05-04 12:43 38.10139 23.91520 10453 ft 303 kts 271°
2026-05-04 12:43 38.10061 23.88709 10645 ft 327 kts 271°
2026-05-04 12:43 38.09978 23.85764 11128 ft 338 kts 271°
2026-05-04 12:43 38.09889 23.82760 11812 ft 343 kts 271°
2026-05-04 12:44 38.09798 23.79734 12503 ft 347 kts 271°